Content
SEND FEEDBACK

Daily
Averages
Monthly
Summary
Mexico

PUEBLA - JARDINES DE SAN MANUEL, PUEBLA


Home > North America > Mexico > Puebla
Elevation: 2122 meters     Latitude: 19 00N     Longitude: 098 11W

WEATHER
 
SELECT A DAY
Number of Records: 120,769;   Date Range: 1/1/95 - 7/11/14
 
SHARE

PRINT THIS DATA

[ ← Previous Day ]
WEATHER ALMANAC - 7 DECEMBER, 2013
[ Next Day → ]
[ °F ]   °C
Weather ElementAverageHighLow
Temperature15.1 °C22.2 °C (2:55 pm)3 °C (6:40 am)
Dewpoint4.7 °C8 °C (9:41 am)0.6 °C (5:55 pm)
Humidity51.2 %93 % (6:40 am)15 % (2:55 pm)
Barometer1024.4 hPa1031.5 hPa (8:47 am)1010.5 hPa (5:55 pm)
Wind Speed8.9 km/h24.1 km/h (2:44 pm)
Weather ElementAverage
Visibility9.3 km
Wind DirectionSSW (192.6 °)

Weather ElementTotal
Precipitation---
Heating Degree Days5.7 (Base 18.3)
Growing Degree Days2.6 (Base 10)
Averaged from 23 records on 7 December, 2013
WEATHER CONDITIONS BREAKOUT
WIND DIRECTION BREAKOUT
WEATHER BY HOUR - 7 DECEMBER, 2013
[ °F ]   °C
Local TimeTemperatureDewpointHumidityBarometerVisibilityWind DirectionWind SpeedGust SpeedPrecipitationEventsConditions
5:44 AM4 °C2 °C87 %1029.1 hPa12.9 kmWest (280°)7.4 km/hClear
5:45 AM8.3 °C7.2 °C88 %1015.6 hPa9.7 kmCalm
6:40 AM3 °C2 °C93 %1029.8 hPa9.7 kmNNW (340°)9.3 km/hClear
7:47 AM7 °C5 °C87 %1029.5 hPa8 kmCalmClear
8:47 AM11 °C7 °C76 %1031.5 hPa8 kmNorth (350°)5.6 km/hClear
8:50 AM13.3 °C7.8 °C60 %1020 hPa4.8 kmCalmHaze
9:41 AM15 °C8 °C63 %1031.2 hPa8 kmSE (130°)11.1 km/hClear
10:43 AM17 °C7 °C52 %1030.8 hPa6.4 kmSouth (190°)7.4 km/hClear
11:46 AM19 °C6 °C43 %1029.8 hPa6.4 kmSE (140°)11.1 km/hClear
11:50 AM19.4 °C5.6 °C28 %1018.6 hPa9.7 kmSSW (210°)3.5 km/hHaze
12:46 PM21 °C5 °C35 %1028.4 hPa6.4 kmSouth (180°)22.2 km/hClear
1:48 PM21 °C3 °C31 %1027.4 hPa9.7 kmSE (140°)13 km/hClear
2:44 PM22 °C6 °C35 %1026.8 hPa9.7 kmSouth (180°)24.1 km/hClear
2:55 PM22.2 °C1.7 °C15 %1012.5 hPa4.8 kmSouth (180°)3.5 km/hHaze
3:41 PM22 °C5 °C33 %1026.4 hPa12.9 kmSouth (180°)20.4 km/hClear
4:44 PM20 °C3 °C33 %1026.8 hPa16.1 kmSouth (180°)14.8 km/hClear
5:48 PM17 °C4 °C42 %1027.4 hPa12.9 kmSSW (200°)13 km/hClear
5:55 PM19.4 °C0.6 °C18 %1010.5 hPa9.7 kmSSE (150°)7.2 km/hHaze
6:45 PM15 °C5 °C51 %1027.8 hPa12.9 kmSW (230°)13 km/hClear
7:49 PM12 °C4 °C58 %1028.4 hPa12.9 kmSSE (160°)9.3 km/hClear
8:41 PM12 °C4 °C58 %1029.1 hPa12.9 kmWSW (240°)7.4 km/hClear
8:50 PM14.4 °C2.2 °C32 %1011.5 hPa4.8 kmCalm
11:50 PM12.2 °C6.7 °C59 %1012.9 hPa4.8 kmCalm
Hourly data recorded from MMPB, located 0 kilometers away from Puebla - Jardines de San Manuel, Puebla







STORIES FROM OUR PARTNERS